• En España
  • Lista de países
  • Para 7 días
  • Temperatura del agua
  • Mapa Satelital
  • El tiempo en el mapa
  • Informadores
  • user-avatar
    Iniciar sesión

    Tiempo cada hora Elbasan

    Hoy, 21 Agosto, Lunes

    Tiempo Temperatura Precipitaciones Viento Presión Humedad
    00:00 +23°C° 1 mm 2 mps 733 mmHg 71%
    01:00 +23°C° 0 mm 2 mps 733 mmHg 73%
    02:00 +23°C° 1 mm 2 mps 733 mmHg 78%
    03:00 +21°C° 1 mm 2 mps 733 mmHg 83%
    04:00 +21°C° 1 mm 2 mps 733 mmHg 88%
    05:00 +23°C° 0,1 mm 2 mps 733 mmHg 83%
    06:00 +24°C° 0,1 mm 2 mps 733 mmHg 78%
    07:00 +25°C° 0 mm 1 mps 733 mmHg 70%
    08:00 +26°C° 0,3 mm 2 mps 733 mmHg 61%
    09:00 +28°C° 0,3 mm 2 mps 733 mmHg 53%
    10:00 +30°C° 0,3 mm 2 mps 733 mmHg 45%
    11:00 +30°C° 0,1 mm 2 mps 733 mmHg 43%
    12:00 +31°C° 0,1 mm 3 mps 733 mmHg 40%
    13:00 +33°C° 0,1 mm 3 mps 733 mmHg 38%
    14:00 +31°C° 0,1 mm 3 mps 733 mmHg 41%
    15:00 +30°C° 0,1 mm 4 mps 732 mmHg 45%
    16:00 +29°C° 0,1 mm 4 mps 732 mmHg 49%
    17:00 +27°C° 0,1 mm 3 mps 733 mmHg 55%
    18:00 +25°C° 0,1 mm 3 mps 733 mmHg 61%
    19:00 +24°C° 0,1 mm 3 mps 733 mmHg 67%
    20:00 +23°C° 0 mm 2 mps 733 mmHg 70%
    21:00 +21°C° 0 mm 2 mps 734 mmHg 73%
    22:00 +20°C° 0 mm 2 mps 734 mmHg 76%
    23:00 +20°C° 0 mm 2 mps 734 mmHg 76%

    Mañana, 22 Agosto, Martes

    Tiempo Temperatura Precipitaciones Viento Presión Humedad
    00:00 +19°C° 0 mm 2 mps 734 mmHg 76%
    01:00 +19°C° 0 mm 3 mps 734 mmHg 76%
    02:00 +18°C° 0 mm 3 mps 734 mmHg 75%
    03:00 +18°C° 0 mm 3 mps 734 mmHg 74%
    04:00 +17°C° 0 mm 3 mps 734 mmHg 74%
    05:00 +18°C° 0 mm 3 mps 734 mmHg 67%
    06:00 +20°C° 0 mm 3 mps 735 mmHg 61%
    07:00 +21°C° 0 mm 3 mps 735 mmHg 54%
    08:00 +24°C° 0 mm 3 mps 735 mmHg 48%
    09:00 +26°C° 0 mm 3 mps 735 mmHg 41%
    10:00 +27°C° 0 mm 3 mps 735 mmHg 34%
    11:00 +28°C° 0 mm 3 mps 735 mmHg 32%
    12:00 +30°C° 0 mm 3 mps 735 mmHg 29%
    13:00 +31°C° 0 mm 3 mps 735 mmHg 26%
    14:00 +31°C° 0 mm 3 mps 734 mmHg 25%
    15:00 +30°C° 0 mm 4 mps 734 mmHg 25%
    16:00 +30°C° 0 mm 4 mps 734 mmHg 25%
    17:00 +28°C° 0 mm 4 mps 734 mmHg 32%
    18:00 +25°C° 0 mm 3 mps 734 mmHg 38%
    19:00 +21°C° 0 mm 2 mps 734 mmHg 45%
    20:00 +21°C° 0 mm 2 mps 735 mmHg 46%
    21:00 +20°C° 0 mm 2 mps 735 mmHg 47%
    22:00 +19°C° 0 mm 2 mps 735 mmHg 48%
    23:00 +19°C° 0 mm 2 mps 735 mmHg 47%

    Pasado mañana, 23 Agosto, Miércoles

    Tiempo Temperatura Precipitaciones Viento Presión Humedad
    00:00 +18°C° 0 mm 2 mps 735 mmHg 46%
    01:00 +18°C° 0 mm 2 mps 735 mmHg 46%
    02:00 +18°C° 0 mm 2 mps 735 mmHg 46%
    03:00 +18°C° 0 mm 2 mps 735 mmHg 46%
    04:00 +17°C° 0 mm 2 mps 735 mmHg 47%
    05:00 +19°C° 0 mm 2 mps 735 mmHg 44%
    06:00 +21°C° 0 mm 2 mps 736 mmHg 42%
    07:00 +23°C° 0 mm 2 mps 736 mmHg 39%
    08:00 +26°C° 0 mm 1 mps 736 mmHg 35%
    09:00 +28°C° 0 mm 1 mps 737 mmHg 31%
    10:00 +30°C° 0 mm 1 mps 737 mmHg 26%
    11:00 +31°C° 0 mm 2 mps 737 mmHg 25%
    12:00 +32°C° 0 mm 2 mps 736 mmHg 23%
    13:00 +33°C° 0 mm 3 mps 736 mmHg 22%
    14:00 +33°C° 0 mm 3 mps 736 mmHg 23%
    15:00 +32°C° 0 mm 4 mps 736 mmHg 24%
    16:00 +32°C° 0 mm 4 mps 736 mmHg 25%
    17:00 +28°C° 0 mm 3 mps 736 mmHg 32%
    18:00 +25°C° 0 mm 2 mps 736 mmHg 39%
    19:00 +23°C° 0 mm 1 mps 736 mmHg 46%
    20:00 +22°C° 0 mm 1 mps 737 mmHg 47%
    21:00 +21°C° 0 mm 1 mps 737 mmHg 47%
    22:00 +21°C° 0 mm 1 mps 737 mmHg 47%
    23:00 +21°C° 0 mm 1 mps 737 mmHg 46%

    24 Agosto, Jueves

    Tiempo Temperatura Precipitaciones Viento Presión Humedad
    00:00 +19°C° 0 mm 2 mps 737 mmHg 46%
    01:00 +19°C° 0 mm 2 mps 737 mmHg 45%
    02:00 +19°C° 0 mm 2 mps 737 mmHg 45%
    03:00 +18°C° 0 mm 2 mps 737 mmHg 44%
    04:00 +18°C° 0 mm 2 mps 737 mmHg 44%
    05:00 +20°C° 0 mm 2 mps 737 mmHg 42%
    06:00 +21°C° 0 mm 2 mps 737 mmHg 39%
    07:00 +24°C° 0 mm 2 mps 738 mmHg 37%
    08:00 +26°C° 0 mm 2 mps 738 mmHg 33%
    09:00 +29°C° 0 mm 1 mps 738 mmHg 29%
    10:00 +31°C° 0 mm 1 mps 738 mmHg 25%
    11:00 +32°C° 0 mm 2 mps 738 mmHg 23%
    12:00 +34°C° 0 mm 2 mps 738 mmHg 22%
    13:00 +35°C° 0 mm 3 mps 738 mmHg 20%
    14:00 +34°C° 0 mm 3 mps 737 mmHg 21%
    15:00 +34°C° 0 mm 3 mps 737 mmHg 21%
    16:00 +34°C° 0 mm 3 mps 737 mmHg 22%
    17:00 +30°C° 0 mm 3 mps 737 mmHg 27%
    18:00 +27°C° 0 mm 2 mps 737 mmHg 33%
    19:00 +24°C° 0 mm 1 mps 737 mmHg 39%
    20:00 +23°C° 0 mm 1 mps 737 mmHg 39%
    21:00 +23°C° 0 mm 1 mps 738 mmHg 38%
    22:00 +23°C° 0 mm 1 mps 738 mmHg 38%
    23:00 +21°C° 0 mm 2 mps 738 mmHg 37%

    25 Agosto, Viernes

    Tiempo Temperatura Precipitaciones Viento Presión Humedad
    00:00 +21°C° 0 mm 2 mps 738 mmHg 36%
    01:00 +21°C° 0 mm 2 mps 738 mmHg 35%
    02:00 +20°C° 0 mm 2 mps 738 mmHg 34%
    03:00 +20°C° 0 mm 2 mps 738 mmHg 34%
    04:00 +20°C° 0 mm 2 mps 738 mmHg 33%
    05:00 +21°C° 0 mm 2 mps 738 mmHg 32%
    06:00 +24°C° 0 mm 2 mps 738 mmHg 31%
    07:00 +26°C° 0 mm 2 mps 738 mmHg 30%
    08:00 +28°C° 0 mm 2 mps 738 mmHg 26%
    09:00 +31°C° 0 mm 1 mps 738 mmHg 22%
    10:00 +33°C° 0 mm 1 mps 738 mmHg 19%
    11:00 +35°C° 0 mm 2 mps 738 mmHg 18%
    12:00 +36°C° 0 mm 2 mps 738 mmHg 17%
    13:00 +36°C° 0 mm 3 mps 738 mmHg 16%
    14:00 +36°C° 0 mm 3 mps 737 mmHg 17%
    15:00 +36°C° 0 mm 3 mps 737 mmHg 18%
    16:00 +35°C° 0 mm 3 mps 737 mmHg 18%
    17:00 +31°C° 0 mm 2 mps 737 mmHg 24%
    18:00 +28°C° 0 mm 2 mps 737 mmHg 29%
    19:00 +25°C° 0 mm 1 mps 737 mmHg 35%
    20:00 +25°C° 0 mm 1 mps 737 mmHg 34%
    21:00 +24°C° 0 mm 1 mps 737 mmHg 33%
    22:00 +24°C° 0 mm 1 mps 737 mmHg 33%
    23:00 +23°C° 0 mm 2 mps 737 mmHg 32%

    26 Agosto, Sábado

    Tiempo Temperatura Precipitaciones Viento Presión Humedad
    00:00 +23°C° 0 mm 2 mps 737 mmHg 32%
    01:00 +21°C° 0 mm 2 mps 737 mmHg 31%
    02:00 +21°C° 0 mm 2 mps 737 mmHg 32%
    03:00 +21°C° 0 mm 2 mps 737 mmHg 33%
    04:00 +20°C° 0 mm 2 mps 737 mmHg 34%
    05:00 +23°C° 0 mm 2 mps 737 mmHg 34%
    06:00 +25°C° 0 mm 2 mps 737 mmHg 33%
    07:00 +26°C° 0 mm 2 mps 737 mmHg 33%
    08:00 +29°C° 0 mm 2 mps 738 mmHg 28%
    09:00 +31°C° 0 mm 1 mps 738 mmHg 24%
    10:00 +34°C° 0 mm 1 mps 738 mmHg 19%
    11:00 +36°C° 0 mm 2 mps 737 mmHg 18%
    12:00 +36°C° 0 mm 2 mps 737 mmHg 17%
    13:00 +37°C° 0 mm 3 mps 737 mmHg 16%
    14:00 +37°C° 0 mm 3 mps 736 mmHg 17%
    15:00 +36°C° 0 mm 3 mps 736 mmHg 17%
    16:00 +36°C° 0 mm 3 mps 736 mmHg 18%
    17:00 +32°C° 0 mm 2 mps 736 mmHg 24%
    18:00 +29°C° 0 mm 2 mps 736 mmHg 29%
    19:00 +26°C° 0 mm 1 mps 736 mmHg 35%
    20:00 +25°C° 0 mm 1 mps 737 mmHg 35%
    21:00 +25°C° 0 mm 1 mps 737 mmHg 36%
    22:00 +24°C° 0 mm 1 mps 737 mmHg 36%
    23:00 +24°C° 0 mm 2 mps 737 mmHg 37%
    Mostrar más